Погода в Саситли

Россия / Республика Дагестан     42°29′43″N   45°59′49″E
темп.,
°C
ветер,
м/с
пор.,
м/с
влажн.,
%
обл.,
%
осадки,
мм/ч
давл.,
гПа
погр.,
м
25 июня, сб
сб2500:00+8ююз449313 0.4 101367
03:00+7ююз449111 0.4 101367
06:00+10ююз34875 0.1 1012140
09:00+16ююз34601 0.7 1010949
12:00+18ююз265129 1.2 10092129
15:00+17ююз355745 2.8 10091374
18:00+13зюз237995 2.1 1012150
21:00+10ю458793 2.9 101381
26 июня, вс
вс2600:00+9ююз5591100 1.3 1014147
03:00+8ююз3287100 2.6 101226
06:00+11ююз2384100 0.3 101082
09:00+14юв237497 1.0 1009376
12:00+13зюз227831 2.9 1010220
15:00+15с117397 6.7 1009296
18:00+12с128589 6.7 101078
21:00+11ю2289100 8.9 101224
27 июня, пн
пн2700:00+9ююв118992 0.1 101311
03:00+8ююз22870 0.1 101313
06:00+11юз11785 0.0 101360
09:00+16ссв32660 0.0 1011658
12:00+17ссв436813 1.9 1011692
15:00+16с438444 4.8 1012648
18:00+12с229898 1.9 1014204
21:00+11ссв1299100 2.8 1016107
28 июня, вт
вт2800:00+11юв1195100 1.1 101424
03:00+10з119158 3.8 101423
06:00+12ююз22820 0.0 101379
09:00+17с12631 0.1 1010949
12:00+18ссв326710 0.9 10101010
15:00+15с448457 3.9 1012607
18:00+12ссз239379 1.8 1015245
21:00+9сз1294100 2.4 101641
29 июня, ср
ср2900:00+8сз1194100 0.2 101714
03:00+7зюз00931 0.2 101610
06:00+9св119444 0.0 1016139
09:00+13св227981 0.1 1014764
12:00+14ссв328091 0.4 1014678
15:00+13ссв338587 2.9 1015657
18:00+11ссв2293100 0.7 1015214
21:00+10ссв2296100 1.0 101681